Tracking 19796 objects as of 19-Jul-2019
HD Live streaming from Space Station
objects crossing your sky now

IUS DEB

Track IUS DEB now!
10-day predictions


NORAD ID: 43365
Int'l Code: 1999-040N
Perigee: 401.8 km
Apogee: 9,193.4 km
Inclination: 28.4 °
Period: 195.8 minutes
Semi major axis: 11168 km
RCS: Unknown
Launch date: July 23, 1999
Source: United States (US)
Launch site: AIR FORCE EASTERN TEST RANGE (AFETR)

Note: This is SATELLITE DEBRIS
aabbcc
Your satellite tracking list
Your tracking list is empty




NASA's NSSDC Master Catalog

Two Line Element Set (TLE):
1 43365U 99040N   19198.18140462  .00000852  00000-0  28073-3 0  9995
2 43365  28.3769 167.4056 3935866 155.9461 229.0613  7.35534853 68806
Source of the keplerian elements: AFSPC